Time,TemperatureF,DewpointF,PressureIn,WindDirection,WindDirectionDegrees,WindSpeedMPH,WindSpeedGustMPH,Humidity,HourlyPrecipIn,Conditions,Clouds,dailyrainin,SoftwareType,DateUTC
2013-03-08 00:00:00,31.1,23.5,30.27,SE,146,2.0,4.0,73,0.00,,---,0.00,VWS V14.01,2013-03-08 05:00:00,
2013-03-08 00:05:00,30.8,23.5,30.27,SE,146,0.0,4.0,74,0.00,,---,0.00,VWS V14.01,2013-03-08 05:05:00,
2013-03-08 00:10:00,30.7,23.4,30.27,SE,146,2.0,4.0,74,0.00,,---,0.00,VWS V14.01,2013-03-08 05:10:00,
2013-03-08 00:15:00,30.6,23.3,30.26,SSE,166,1.0,7.0,74,0.00,,---,0.00,VWS V14.01,2013-03-08 05:15:00,
2013-03-08 00:20:00,30.5,23.2,30.26,SE,126,0.0,5.0,74,0.00,,---,0.00,VWS V14.01,2013-03-08 05:20:00,
2013-03-08 00:25:00,28.3,23.2,30.26,SSE,159,0.0,2.0,81,0.00,,---,0.00,VWS V14.01,2013-03-08 05:25:00,
2013-03-08 00:30:00,30.2,23.2,30.26,SE,126,0.0,2.0,75,0.00,,---,0.00,VWS V14.01,2013-03-08 05:30:00,
2013-03-08 00:35:00,30.0,23.4,30.27,SE,126,0.0,2.0,76,0.00,,---,0.00,VWS V14.01,2013-03-08 05:35:00,
2013-03-08 00:40:00,28.6,23.2,30.26,NNW,329,2.0,4.0,80,0.00,,---,0.00,VWS V14.01,2013-03-08 05:40:00,
2013-03-08 00:45:00,29.6,23.3,30.26,South,176,4.0,5.0,77,0.00,,---,0.00,VWS V14.01,2013-03-08 05:45:00,
2013-03-08 00:50:00,29.3,23.0,30.26,South,177,0.0,4.0,77,0.00,,---,0.00,VWS V14.01,2013-03-08 05:50:00,
2013-03-08 00:55:00,29.2,23.2,30.26,SSE,165,4.0,4.0,78,0.00,,---,0.00,VWS V14.01,2013-03-08 05:55:00,
2013-03-08 01:00:00,28.8,23.4,30.25,NE,46,0.0,4.0,80,0.00,,---,0.00,VWS V14.01,2013-03-08 06:00:00,
2013-03-08 01:05:00,28.8,23.1,30.26,SSE,165,4.0,5.0,79,0.00,,---,0.00,VWS V14.01,2013-03-08 06:05:00,
2013-03-08 01:10:00,28.9,23.2,30.25,NW,313,2.0,5.0,79,0.00,,---,0.00,VWS V14.01,2013-03-08 06:10:00,
2013-03-08 01:15:00,28.4,23.0,30.26,SSE,157,1.0,4.0,80,0.00,,---,0.00,VWS V14.01,2013-03-08 06:15:00,
2013-03-08 01:20:00,28.3,22.9,30.26,SSE,159,1.0,2.0,80,0.00,,---,0.00,VWS V14.01,2013-03-08 06:20:00,
2013-03-08 01:25:00,29.4,23.7,30.25,NNE,18,0.0,5.0,79,0.00,,---,0.00,VWS V14.01,2013-03-08 06:25:00,
2013-03-08 01:30:00,28.3,22.9,30.26,SSE,159,0.0,4.0,80,0.00,,---,0.00,VWS V14.01,2013-03-08 06:30:00,
2013-03-08 01:35:00,28.4,23.0,30.26,WNW,293,1.0,5.0,80,0.00,,---,0.00,VWS V14.01,2013-03-08 06:35:00,
2013-03-08 01:40:00,28.6,23.2,30.26,NNW,329,2.0,4.0,80,0.00,,---,0.00,VWS V14.01,2013-03-08 06:40:00,
2013-03-08 01:45:00,28.8,23.4,30.25,NNW,335,0.0,4.0,80,0.00,,---,0.00,VWS V14.01,2013-03-08 06:45:00,
2013-03-08 01:50:00,28.7,23.3,30.25,ENE,57,1.0,4.0,80,0.00,,---,0.00,VWS V14.01,2013-03-08 06:50:00,
2013-03-08 01:55:00,28.7,23.0,30.25,NE,34,0.0,3.0,79,0.00,,---,0.00,VWS V14.01,2013-03-08 06:55:00,
2013-03-08 02:00:00,28.8,23.4,30.25,NE,46,0.0,4.0,80,0.00,,---,0.00,VWS V14.01,2013-03-08 07:00:00,
2013-03-08 02:05:00,28.8,23.4,30.25,NE,46,0.0,3.0,80,0.00,,---,0.00,VWS V14.01,2013-03-08 07:05:00,
2013-03-08 02:10:00,28.9,23.2,30.25,NW,313,2.0,5.0,79,0.00,,---,0.00,VWS V14.01,2013-03-08 07:10:00,
2013-03-08 02:15:00,29.0,23.6,30.25,ENE,58,1.0,4.0,80,0.00,,---,0.00,VWS V14.01,2013-03-08 07:15:00,
2013-03-08 02:20:00,31.8,23.5,30.24,SW,234,2.0,5.0,71,0.00,,---,0.00,VWS V14.01,2013-03-08 07:20:00,
2013-03-08 02:25:00,29.4,23.7,30.25,NNE,18,0.0,5.0,79,0.00,,---,0.00,VWS V14.01,2013-03-08 07:25:00,
2013-03-08 02:30:00,29.7,23.4,30.24,SSW,208,0.0,7.0,77,0.00,,---,0.00,VWS V14.01,2013-03-08 07:30:00,
2013-03-08 02:35:00,30.0,23.7,30.25,West,269,1.0,6.0,77,0.00,,---,0.00,VWS V14.01,2013-03-08 07:35:00,
2013-03-08 02:40:00,30.5,23.9,30.25,NW,319,1.0,5.0,76,0.00,,---,0.00,VWS V14.01,2013-03-08 07:40:00,
2013-03-08 02:45:00,30.8,23.5,30.25,NW,321,0.0,6.0,74,0.00,,---,0.00,VWS V14.01,2013-03-08 07:45:00,
2013-03-08 02:50:00,31.0,23.7,30.24,West,277,4.0,6.0,74,0.00,,---,0.00,VWS V14.01,2013-03-08 07:50:00,
2013-03-08 02:55:00,31.2,23.9,30.25,NW,307,2.0,5.0,74,0.00,,---,0.00,VWS V14.01,2013-03-08 07:55:00,
2013-03-08 03:00:00,31.3,24.0,30.24,North,355,4.0,7.0,74,0.00,,---,0.00,VWS V14.01,2013-03-08 08:00:00,
2013-03-08 03:05:00,31.4,23.8,30.24,North,349,1.0,5.0,73,0.00,,---,0.00,VWS V14.01,2013-03-08 08:05:00,
2013-03-08 03:10:00,31.5,23.9,30.24,WSW,246,5.0,5.0,73,0.00,,---,0.00,VWS V14.01,2013-03-08 08:10:00,
2013-03-08 03:15:00,31.6,23.6,30.23,West,259,3.0,6.0,72,0.00,,---,0.00,VWS V14.01,2013-03-08 08:15:00,
2013-03-08 03:20:00,31.8,23.5,30.24,SW,234,2.0,5.0,71,0.00,,---,0.00,VWS V14.01,2013-03-08 08:20:00,
2013-03-08 03:25:00,32.0,23.7,30.23,WNW,285,8.0,8.0,71,0.00,,---,0.00,VWS V14.01,2013-03-08 08:25:00,
2013-03-08 03:30:00,32.3,23.6,30.23,WSW,244,11.0,11.0,70,0.00,,---,0.00,VWS V14.01,2013-03-08 08:30:00,
2013-03-08 03:35:00,32.6,23.9,30.23,WSW,248,2.0,12.0,70,0.00,,---,0.00,VWS V14.01,2013-03-08 08:35:00,
2013-03-08 03:40:00,32.7,23.7,30.22,West,279,4.0,7.0,69,0.00,,---,0.00,VWS V14.01,2013-03-08 08:40:00,
2013-03-08 03:45:00,32.8,23.8,30.22,West,281,4.0,5.0,69,0.00,,---,0.00,VWS V14.01,2013-03-08 08:45:00,
2013-03-08 03:50:00,32.8,23.8,30.23,South,178,4.0,5.0,69,0.00,,---,0.00,VWS V14.01,2013-03-08 08:50:00,
2013-03-08 03:55:00,32.7,23.3,30.23,SSW,193,2.0,4.0,68,0.00,,---,0.00,VWS V14.01,2013-03-08 08:55:00,
2013-03-08 04:00:00,32.4,23.7,30.23,SSE,147,0.0,5.0,70,0.00,,---,0.00,VWS V14.01,2013-03-08 09:00:00,
2013-03-08 04:05:00,32.2,23.5,30.24,ESE,117,2.0,2.0,70,0.00,,---,0.00,VWS V14.01,2013-03-08 09:05:00,
2013-03-08 04:10:00,31.8,23.5,30.25,East,81,1.0,6.0,71,0.00,,---,0.00,VWS V14.01,2013-03-08 09:10:00,
2013-03-08 04:15:00,31.7,23.4,30.25,East,86,2.0,4.0,71,0.00,,---,0.00,VWS V14.01,2013-03-08 09:15:00,
2013-03-08 04:20:00,31.5,23.5,30.25,East,87,1.0,3.0,72,0.00,,---,0.00,VWS V14.01,2013-03-08 09:20:00,
2013-03-08 04:25:00,31.2,23.2,30.25,ESE,121,0.0,4.0,72,0.00,,---,0.00,VWS V14.01,2013-03-08 09:25:00,
2013-03-08 04:30:00,31.0,23.4,30.25,ESE,121,0.0,2.0,73,0.00,,---,0.00,VWS V14.01,2013-03-08 09:30:00,
2013-03-08 04:35:00,30.7,23.1,30.25,ESE,121,0.0,0.0,73,0.00,,---,0.00,VWS V14.01,2013-03-08 09:35:00,
2013-03-08 04:40:00,29.6,23.3,30.27,South,183,0.0,3.0,77,0.00,,---,0.00,VWS V14.01,2013-03-08 09:40:00,
2013-03-08 04:45:00,30.0,22.7,30.25,ESE,121,0.0,2.0,74,0.00,,---,0.00,VWS V14.01,2013-03-08 09:45:00,
2013-03-08 04:50:00,29.9,23.0,30.25,SE,126,1.0,7.0,75,0.00,,---,0.00,VWS V14.01,2013-03-08 09:50:00,
2013-03-08 04:55:00,29.7,23.1,30.25,SE,126,0.0,2.0,76,0.00,,---,0.00,VWS V14.01,2013-03-08 09:55:00,
2013-03-08 05:00:00,29.6,23.0,30.26,SE,126,1.0,1.0,76,0.00,,---,0.00,VWS V14.01,2013-03-08 10:00:00,
2013-03-08 05:05:00,29.6,23.0,30.26,SE,126,2.0,4.0,76,0.00,,---,0.00,VWS V14.01,2013-03-08 10:05:00,
2013-03-08 05:10:00,29.5,23.2,30.26,ESE,121,0.0,4.0,77,0.00,,---,0.00,VWS V14.01,2013-03-08 10:10:00,
2013-03-08 05:15:00,29.4,23.1,30.27,SSE,157,1.0,5.0,77,0.00,,---,0.00,VWS V14.01,2013-03-08 10:15:00,
2013-03-08 05:20:00,29.6,23.3,30.27,SE,139,2.0,6.0,77,0.00,,---,0.00,VWS V14.01,2013-03-08 10:20:00,
2013-03-08 05:25:00,29.7,23.4,30.27,SE,141,1.0,4.0,77,0.00,,---,0.00,VWS V14.01,2013-03-08 10:25:00,
2013-03-08 05:30:00,29.7,23.4,30.27,South,183,1.0,6.0,77,0.00,,---,0.00,VWS V14.01,2013-03-08 10:30:00,
2013-03-08 05:35:00,29.7,23.4,30.27,South,183,2.0,2.0,77,0.00,,---,0.00,VWS V14.01,2013-03-08 10:35:00,
2013-03-08 05:40:00,29.6,23.3,30.27,South,183,0.0,3.0,77,0.00,,---,0.00,VWS V14.01,2013-03-08 10:40:00,
2013-03-08 05:45:00,29.4,23.1,30.27,South,183,1.0,2.0,77,0.00,,---,0.00,VWS V14.01,2013-03-08 10:45:00,
2013-03-08 05:50:00,29.3,23.0,30.26,South,183,0.0,3.0,77,0.00,,---,0.00,VWS V14.01,2013-03-08 10:50:00,
2013-03-08 05:55:00,29.2,22.9,30.27,South,183,0.0,0.0,77,0.00,,---,0.00,VWS V14.01,2013-03-08 10:55:00,
2013-03-08 06:00:00,29.1,23.1,30.27,South,183,2.0,3.0,78,0.00,,---,0.00,VWS V14.01,2013-03-08 11:00:00,
2013-03-08 06:05:00,28.9,22.9,30.26,South,178,2.0,4.0,78,0.00,,---,0.00,VWS V14.01,2013-03-08 11:05:00,
2013-03-08 06:10:00,28.7,22.7,30.26,South,178,0.0,2.0,78,0.00,,---,0.00,VWS V14.01,2013-03-08 11:10:00,
2013-03-08 06:15:00,28.5,22.8,30.27,South,178,0.0,0.0,79,0.00,,---,0.00,VWS V14.01,2013-03-08 11:15:00,
2013-03-08 06:20:00,29.1,24.3,30.29,SE,142,0.0,4.0,82,0.00,,---,0.00,VWS V14.01,2013-03-08 11:20:00,
2013-03-08 06:25:00,28.2,22.5,30.28,South,178,0.0,4.0,79,0.00,,---,0.00,VWS V14.01,2013-03-08 11:25:00,
2013-03-08 06:30:00,28.1,22.7,30.28,South,178,0.0,0.0,80,0.00,,---,0.00,VWS V14.01,2013-03-08 11:30:00,
2013-03-08 06:35:00,28.1,22.7,30.28,South,178,0.0,0.0,80,0.00,,---,0.00,VWS V14.01,2013-03-08 11:35:00,
2013-03-08 06:40:00,28.1,22.7,30.28,South,178,0.0,0.0,80,0.00,,---,0.00,VWS V14.01,2013-03-08 11:40:00,
2013-03-08 06:45:00,31.2,25.8,30.30,ESE,111,0.0,2.0,80,0.00,,---,0.00,VWS V14.01,2013-03-08 11:45:00,
2013-03-08 06:50:00,28.1,22.7,30.29,South,178,0.0,0.0,80,0.00,,---,0.00,VWS V14.01,2013-03-08 11:50:00,
2013-03-08 06:55:00,28.2,23.7,30.29,South,178,0.0,0.0,83,0.00,,---,0.00,VWS V14.01,2013-03-08 11:55:00,
2013-03-08 07:00:00,32.3,25.9,30.30,ESE,111,0.0,2.0,77,0.00,,---,0.00,VWS V14.01,2013-03-08 12:00:00,
2013-03-08 07:05:00,28.4,23.9,30.28,South,178,0.0,2.0,83,0.00,,---,0.00,VWS V14.01,2013-03-08 12:05:00,
2013-03-08 07:10:00,28.6,24.1,30.28,SE,146,1.0,4.0,83,0.00,,---,0.00,VWS V14.01,2013-03-08 12:10:00,
2013-03-08 07:15:00,28.8,24.3,30.28,SE,142,1.0,4.0,83,0.00,,---,0.00,VWS V14.01,2013-03-08 12:15:00,
2013-03-08 07:20:00,29.1,24.3,30.29,SE,142,0.0,4.0,82,0.00,,---,0.00,VWS V14.01,2013-03-08 12:20:00,
2013-03-08 07:25:00,29.4,24.6,30.29,South,175,2.0,5.0,82,0.00,,---,0.00,VWS V14.01,2013-03-08 12:25:00,
2013-03-08 07:30:00,30.2,24.8,30.28,ESE,111,1.0,7.0,80,0.00,,---,0.00,VWS V14.01,2013-03-08 12:30:00,
2013-03-08 07:35:00,30.6,25.2,30.29,ESE,111,0.0,2.0,80,0.00,,---,0.00,VWS V14.01,2013-03-08 12:35:00,
2013-03-08 07:40:00,30.9,25.5,30.29,ESE,111,0.0,0.0,80,0.00,,---,0.00,VWS V14.01,2013-03-08 12:40:00,
2013-03-08 07:45:00,31.2,25.8,30.30,ESE,111,0.0,2.0,80,0.00,,---,0.00,VWS V14.01,2013-03-08 12:45:00,
2013-03-08 07:50:00,31.4,25.6,30.30,ESE,111,0.0,0.0,79,0.00,,---,0.00,VWS V14.01,2013-03-08 12:50:00,
2013-03-08 07:55:00,31.8,25.7,30.30,ESE,111,0.0,0.0,78,0.00,,---,0.00,VWS V14.01,2013-03-08 12:55:00,
2013-03-08 08:00:00,32.3,25.9,30.30,ESE,111,0.0,2.0,77,0.00,,---,0.00,VWS V14.01,2013-03-08 13:00:00,
2013-03-08 08:05:00,37.7,26.6,30.32,ESE,102,5.0,8.0,64,0.00,,---,0.00,VWS V14.01,2013-03-08 13:05:00,
2013-03-08 08:10:00,33.9,26.5,30.30,East,86,1.0,4.0,74,0.00,,---,0.00,VWS V14.01,2013-03-08 13:10:00,
2013-03-08 08:15:00,34.5,26.1,30.31,East,86,1.0,3.0,71,0.00,,---,0.00,VWS V14.01,2013-03-08 13:15:00,
2013-03-08 08:20:00,38.7,26.8,30.32,East,95,5.0,7.0,62,0.00,,---,0.00,VWS V14.01,2013-03-08 13:20:00,
2013-03-08 08:25:00,35.8,25.9,30.32,SSE,162,4.0,5.0,67,0.00,,---,0.00,VWS V14.01,2013-03-08 13:25:00,
2013-03-08 08:30:00,39.1,26.0,30.31,WNW,287,8.0,9.0,59,0.00,,---,0.00,VWS V14.01,2013-03-08 13:30:00,
2013-03-08 08:35:00,36.6,26.0,30.32,South,186,0.0,1.0,65,0.00,,---,0.00,VWS V14.01,2013-03-08 13:35:00,
2013-03-08 08:40:00,38.8,24.9,30.32,East,88,4.0,21.0,57,0.00,,---,0.00,VWS V14.01,2013-03-08 13:40:00,
2013-03-08 08:45:00,37.4,26.4,30.32,ENE,57,4.0,5.0,64,0.00,,---,0.00,VWS V14.01,2013-03-08 13:45:00,
2013-03-08 08:50:00,37.3,25.5,30.32,SSW,209,3.0,10.0,62,0.00,,---,0.00,VWS V14.01,2013-03-08 13:50:00,
2013-03-08 08:55:00,37.2,26.2,30.33,NE,41,2.0,3.0,64,0.00,,---,0.00,VWS V14.01,2013-03-08 13:55:00,
2013-03-08 09:00:00,37.5,25.3,30.32,ENE,75,1.0,10.0,61,0.00,,---,0.00,VWS V14.01,2013-03-08 14:00:00,
2013-03-08 09:05:00,37.7,26.6,30.32,ESE,102,5.0,8.0,64,0.00,,---,0.00,VWS V14.01,2013-03-08 14:05:00,
2013-03-08 09:10:00,38.1,27.0,30.32,SE,128,2.0,6.0,64,0.00,,---,0.00,VWS V14.01,2013-03-08 14:10:00,
2013-03-08 09:15:00,39.7,24.9,30.32,East,96,0.0,9.0,55,0.00,,---,0.00,VWS V14.01,2013-03-08 14:15:00,
2013-03-08 09:20:00,38.7,26.8,30.32,East,95,5.0,7.0,62,0.00,,---,0.00,VWS V14.01,2013-03-08 14:20:00,
2013-03-08 09:25:00,41.0,26.5,30.31,South,186,15.0,15.0,56,0.00,,---,0.00,VWS V14.01,2013-03-08 14:25:00,
2013-03-08 09:30:00,39.1,26.0,30.31,WNW,287,8.0,9.0,59,0.00,,---,0.00,VWS V14.01,2013-03-08 14:30:00,
2013-03-08 09:35:00,39.2,25.3,30.31,SE,143,7.0,21.0,57,0.00,,---,0.00,VWS V14.01,2013-03-08 14:35:00,
2013-03-08 09:40:00,38.8,24.9,30.32,East,88,4.0,21.0,57,0.00,,---,0.00,VWS V14.01,2013-03-08 14:40:00,
2013-03-08 09:45:00,42.2,25.4,30.32,SW,231,10.0,12.0,51,0.00,,---,0.00,VWS V14.01,2013-03-08 14:45:00,
2013-03-08 09:50:00,38.5,25.4,30.32,SE,140,2.0,11.0,59,0.00,,---,0.00,VWS V14.01,2013-03-08 14:50:00,
2013-03-08 09:55:00,38.8,25.3,30.32,SW,226,7.0,17.0,58,0.00,,---,0.00,VWS V14.01,2013-03-08 14:55:00,
2013-03-08 10:00:00,39.5,25.5,30.32,SW,222,5.0,13.0,57,0.00,,---,0.00,VWS V14.01,2013-03-08 15:00:00,
2013-03-08 10:05:00,43.2,25.4,30.31,SSW,204,7.0,10.0,49,0.00,,---,0.00,VWS V14.01,2013-03-08 15:05:00,
2013-03-08 10:10:00,39.7,25.3,30.32,SW,223,5.0,12.0,56,0.00,,---,0.00,VWS V14.01,2013-03-08 15:10:00,
2013-03-08 10:15:00,39.7,24.9,30.32,East,96,0.0,9.0,55,0.00,,---,0.00,VWS V14.01,2013-03-08 15:15:00,
2013-03-08 10:20:00,44.1,25.7,30.32,ENE,77,11.0,13.0,48,0.00,,---,0.00,VWS V14.01,2013-03-08 15:20:00,
2013-03-08 10:25:00,41.0,26.5,30.31,South,186,15.0,15.0,56,0.00,,---,0.00,VWS V14.01,2013-03-08 15:25:00,
2013-03-08 10:30:00,43.8,25.4,30.32,South,190,5.0,13.0,48,0.00,,---,0.00,VWS V14.01,2013-03-08 15:30:00,
2013-03-08 10:35:00,41.9,25.6,30.32,South,172,9.0,17.0,52,0.00,,---,0.00,VWS V14.01,2013-03-08 15:35:00,
2013-03-08 10:40:00,42.2,25.4,30.32,SSE,158,7.0,16.0,51,0.00,,---,0.00,VWS V14.01,2013-03-08 15:40:00,
2013-03-08 10:45:00,42.2,25.4,30.32,SW,231,10.0,12.0,51,0.00,,---,0.00,VWS V14.01,2013-03-08 15:45:00,
2013-03-08 10:50:00,42.3,25.0,30.32,SW,233,10.0,16.0,50,0.00,,---,0.00,VWS V14.01,2013-03-08 15:50:00,
2013-03-08 10:55:00,42.5,25.2,30.32,WSW,244,11.0,13.0,50,0.00,,---,0.00,VWS V14.01,2013-03-08 15:55:00,
2013-03-08 11:00:00,42.9,25.6,30.32,SW,217,10.0,19.0,50,0.00,,---,0.00,VWS V14.01,2013-03-08 16:00:00,
2013-03-08 11:05:00,46.1,25.4,30.31,SSE,168,8.0,11.0,44,0.00,,---,0.00,VWS V14.01,2013-03-08 16:05:00,
2013-03-08 11:10:00,43.9,27.0,30.31,SW,229,2.0,8.0,51,0.00,,---,0.00,VWS V14.01,2013-03-08 16:10:00,
2013-03-08 11:15:00,44.3,25.9,30.32,South,188,3.0,11.0,48,0.00,,---,0.00,VWS V14.01,2013-03-08 16:15:00,
2013-03-08 11:20:00,44.1,25.7,30.32,ENE,77,11.0,13.0,48,0.00,,---,0.00,VWS V14.01,2013-03-08 16:20:00,
2013-03-08 11:25:00,44.0,25.6,30.32,SSW,213,1.0,11.0,48,0.00,,---,0.00,VWS V14.01,2013-03-08 16:25:00,
2013-03-08 11:30:00,43.8,25.4,30.32,South,190,5.0,13.0,48,0.00,,---,0.00,VWS V14.01,2013-03-08 16:30:00,
2013-03-08 11:35:00,47.1,24.6,30.28,SE,140,2.0,13.0,41,0.00,,---,0.00,VWS V14.01,2013-03-08 16:35:00,
2013-03-08 11:40:00,44.3,24.3,30.31,SSW,192,8.0,18.0,45,0.00,,---,0.00,VWS V14.01,2013-03-08 16:40:00,
2013-03-08 11:45:00,44.4,23.9,30.31,ESE,120,4.0,14.0,44,0.00,,---,0.00,VWS V14.01,2013-03-08 16:45:00,
2013-03-08 11:50:00,45.1,26.1,30.31,East,101,6.0,9.0,47,0.00,,---,0.00,VWS V14.01,2013-03-08 16:50:00,
2013-03-08 11:55:00,45.4,25.3,30.31,SSW,193,8.0,22.0,45,0.00,,---,0.00,VWS V14.01,2013-03-08 16:55:00,
2013-03-08 12:00:00,48.0,24.2,30.27,SW,232,6.0,15.0,39,0.00,,---,0.00,VWS V14.01,2013-03-08 17:00:00,
2013-03-08 12:05:00,46.1,25.4,30.31,SSE,168,8.0,11.0,44,0.00,,---,0.00,VWS V14.01,2013-03-08 17:05:00,
2013-03-08 12:10:00,45.7,24.5,30.30,East,89,13.0,14.0,43,0.00,,---,0.00,VWS V14.01,2013-03-08 17:10:00,
2013-03-08 12:15:00,49.0,24.5,30.26,ENE,74,6.0,14.0,38,0.00,,---,0.00,VWS V14.01,2013-03-08 17:15:00,
2013-03-08 12:20:00,46.1,24.3,30.29,SSW,196,6.0,12.0,42,0.00,,---,0.00,VWS V14.01,2013-03-08 17:20:00,
2013-03-08 12:25:00,46.9,25.0,30.29,SSW,196,8.0,15.0,42,0.00,,---,0.00,VWS V14.01,2013-03-08 17:25:00,
2013-03-08 12:30:00,47.0,24.0,30.28,ESE,117,8.0,15.0,40,0.00,,---,0.00,VWS V14.01,2013-03-08 17:30:00,
2013-03-08 12:35:00,49.2,23.4,30.25,SSE,154,4.0,12.0,36,0.00,,---,0.00,VWS V14.01,2013-03-08 17:35:00,
2013-03-08 12:40:00,47.2,25.3,30.28,SSE,155,4.0,13.0,42,0.00,,---,0.00,VWS V14.01,2013-03-08 17:40:00,
2013-03-08 12:45:00,50.2,25.0,30.25,South,188,3.0,12.0,37,0.00,,---,0.00,VWS V14.01,2013-03-08 17:45:00,
2013-03-08 12:50:00,47.7,23.4,30.28,WSW,240,4.0,14.0,38,0.00,,---,0.00,VWS V14.01,2013-03-08 17:50:00,
2013-03-08 12:55:00,48.0,23.6,30.28,SSW,207,8.0,14.0,38,0.00,,---,0.00,VWS V14.01,2013-03-08 17:55:00,
2013-03-08 13:00:00,48.0,24.2,30.27,SW,232,6.0,15.0,39,0.00,,---,0.00,VWS V14.01,2013-03-08 18:00:00,
2013-03-08 13:05:00,48.3,25.7,30.27,SW,215,4.0,15.0,41,0.00,,---,0.00,VWS V14.01,2013-03-08 18:05:00,
2013-03-08 13:10:00,49.0,25.1,30.26,South,176,6.0,12.0,39,0.00,,---,0.00,VWS V14.01,2013-03-08 18:10:00,
2013-03-08 13:15:00,49.0,24.5,30.26,ENE,74,6.0,14.0,38,0.00,,---,0.00,VWS V14.01,2013-03-08 18:15:00,
2013-03-08 13:20:00,48.7,23.6,30.26,ESE,105,4.0,19.0,37,0.00,,---,0.00,VWS V14.01,2013-03-08 18:20:00,
2013-03-08 13:25:00,48.6,23.5,30.26,SSE,161,5.0,20.0,37,0.00,,---,0.00,VWS V14.01,2013-03-08 18:25:00,
2013-03-08 13:30:00,48.7,24.2,30.25,SE,126,6.0,11.0,38,0.00,,---,0.00,VWS V14.01,2013-03-08 18:30:00,
2013-03-08 13:35:00,49.2,23.4,30.25,SSE,154,4.0,12.0,36,0.00,,---,0.00,VWS V14.01,2013-03-08 18:35:00,
2013-03-08 13:40:00,49.7,25.1,30.25,West,281,2.0,9.0,38,0.00,,---,0.00,VWS V14.01,2013-03-08 18:40:00,
2013-03-08 13:45:00,50.2,25.0,30.25,South,188,3.0,12.0,37,0.00,,---,0.00,VWS V14.01,2013-03-08 18:45:00,
2013-03-08 13:50:00,51.7,25.0,30.24,ESE,117,5.0,12.0,35,0.00,,---,0.00,VWS V14.01,2013-03-08 18:50:00,
2013-03-08 13:55:00,50.3,25.0,30.24,WSW,242,6.0,12.0,37,0.00,,---,0.00,VWS V14.01,2013-03-08 18:55:00,
2013-03-08 14:00:00,50.5,25.2,30.24,ESE,117,5.0,20.0,37,0.00,,---,0.00,VWS V14.01,2013-03-08 19:00:00,
2013-03-08 14:05:00,50.6,24.6,30.24,East,86,2.0,14.0,36,0.00,,---,0.00,VWS V14.01,2013-03-08 19:05:00,
2013-03-08 14:10:00,52.1,26.0,30.23,West,271,0.0,13.0,36,0.00,,---,0.00,VWS V14.01,2013-03-08 19:10:00,
2013-03-08 14:15:00,50.5,23.9,30.23,East,101,4.0,15.0,35,0.00,,---,0.00,VWS V14.01,2013-03-08 19:15:00,
2013-03-08 14:20:00,50.4,24.5,30.24,ESE,115,13.0,15.0,36,0.00,,---,0.00,VWS V14.01,2013-03-08 19:20:00,
2013-03-08 14:25:00,50.6,24.6,30.24,South,173,7.0,13.0,36,0.00,,---,0.00,VWS V14.01,2013-03-08 19:25:00,
2013-03-08 14:30:00,50.7,24.1,30.24,SE,132,9.0,18.0,35,0.00,,---,0.00,VWS V14.01,2013-03-08 19:30:00,
2013-03-08 14:35:00,50.7,24.7,30.24,South,184,1.0,12.0,36,0.00,,---,0.00,VWS V14.01,2013-03-08 19:35:00,
2013-03-08 14:40:00,51.0,25.0,30.24,ENE,78,1.0,12.0,36,0.00,,---,0.00,VWS V14.01,2013-03-08 19:40:00,
2013-03-08 14:45:00,51.4,24.7,30.23,SW,221,2.0,9.0,35,0.00,,---,0.00,VWS V14.01,2013-03-08 19:45:00,
2013-03-08 14:50:00,51.7,25.0,30.24,ESE,117,5.0,12.0,35,0.00,,---,0.00,VWS V14.01,2013-03-08 19:50:00,
2013-03-08 14:55:00,52.0,24.5,30.23,ESE,106,7.0,13.0,34,0.00,,---,0.00,VWS V14.01,2013-03-08 19:55:00,
2013-03-08 15:00:00,51.8,24.3,30.23,NW,319,6.0,11.0,34,0.00,,---,0.00,VWS V14.01,2013-03-08 20:00:00,
2013-03-08 15:05:00,51.7,25.0,30.24,SSE,158,6.0,15.0,35,0.00,,---,0.00,VWS V14.01,2013-03-08 20:05:00,
2013-03-08 15:10:00,52.1,26.0,30.23,West,271,0.0,13.0,36,0.00,,---,0.00,VWS V14.01,2013-03-08 20:10:00,
2013-03-08 15:15:00,52.3,24.8,30.24,SSE,157,2.0,9.0,34,0.00,,---,0.00,VWS V14.01,2013-03-08 20:15:00,
2013-03-08 15:20:00,52.2,25.4,30.24,NE,52,7.0,14.0,35,0.00,,---,0.00,VWS V14.01,2013-03-08 20:20:00,
2013-03-08 15:25:00,52.4,24.9,30.24,SE,138,1.0,9.0,34,0.00,,---,0.00,VWS V14.01,2013-03-08 20:25:00,
2013-03-08 15:30:00,52.4,24.9,30.25,East,96,5.0,11.0,34,0.00,,---,0.00,VWS V14.01,2013-03-08 20:30:00,
2013-03-08 15:35:00,52.1,24.6,30.25,SSE,165,7.0,12.0,34,0.00,,---,0.00,VWS V14.01,2013-03-08 20:35:00,
2013-03-08 15:40:00,52.0,25.2,30.25,South,169,4.0,10.0,35,0.00,,---,0.00,VWS V14.01,2013-03-08 20:40:00,
2013-03-08 15:45:00,52.1,26.0,30.24,ESE,119,2.0,8.0,36,0.00,,---,0.00,VWS V14.01,2013-03-08 20:45:00,
2013-03-08 15:50:00,52.4,25.6,30.25,SSW,209,2.0,4.0,35,0.00,,---,0.00,VWS V14.01,2013-03-08 20:50:00,
2013-03-08 15:55:00,52.5,25.0,30.24,South,184,10.0,15.0,34,0.00,,---,0.00,VWS V14.01,2013-03-08 20:55:00,
2013-03-08 16:00:00,52.1,24.6,30.24,SSE,160,10.0,18.0,34,0.00,,---,0.00,VWS V14.01,2013-03-08 21:00:00,
2013-03-08 16:05:00,51.7,25.0,30.24,SSE,158,6.0,15.0,35,0.00,,---,0.00,VWS V14.01,2013-03-08 21:05:00,
2013-03-08 16:10:00,51.6,25.5,30.24,SW,223,8.0,12.0,36,0.00,,---,0.00,VWS V14.01,2013-03-08 21:10:00,
2013-03-08 16:15:00,51.6,25.5,30.24,SE,136,4.0,13.0,36,0.00,,---,0.00,VWS V14.01,2013-03-08 21:15:00,
2013-03-08 16:20:00,51.6,25.5,30.24,ENE,74,1.0,11.0,36,0.00,,---,0.00,VWS V14.01,2013-03-08 21:20:00,
2013-03-08 16:25:00,51.5,26.1,30.24,SSW,194,3.0,9.0,37,0.00,,---,0.00,VWS V14.01,2013-03-08 21:25:00,
2013-03-08 16:30:00,51.5,26.8,30.24,South,190,1.0,11.0,38,0.00,,---,0.00,VWS V14.01,2013-03-08 21:30:00,
2013-03-08 16:35:00,49.7,27.0,30.25,SW,223,0.0,7.0,41,0.00,,---,0.00,VWS V14.01,2013-03-08 21:35:00,
2013-03-08 16:40:00,51.5,26.1,30.24,SSE,155,0.0,16.0,37,0.00,,---,0.00,VWS V14.01,2013-03-08 21:40:00,
2013-03-08 16:45:00,51.4,26.0,30.24,SE,142,2.0,7.0,37,0.00,,---,0.00,VWS V14.01,2013-03-08 21:45:00,
2013-03-08 16:50:00,51.2,25.8,30.24,South,173,7.0,13.0,37,0.00,,---,0.00,VWS V14.01,2013-03-08 21:50:00,
2013-03-08 16:55:00,51.0,25.0,30.24,ESE,121,5.0,9.0,36,0.00,,---,0.00,VWS V14.01,2013-03-08 21:55:00,
2013-03-08 17:00:00,50.7,25.4,30.25,SW,226,4.0,13.0,37,0.00,,---,0.00,VWS V14.01,2013-03-08 22:00:00,
2013-03-08 17:05:00,50.6,26.6,30.25,SW,235,3.0,6.0,39,0.00,,---,0.00,VWS V14.01,2013-03-08 22:05:00,
2013-03-08 17:10:00,50.5,26.5,30.25,NNW,330,4.0,8.0,39,0.00,,---,0.00,VWS V14.01,2013-03-08 22:10:00,
2013-03-08 17:15:00,50.3,25.7,30.25,South,190,6.0,14.0,38,0.00,,---,0.00,VWS V14.01,2013-03-08 22:15:00,
2013-03-08 17:20:00,50.0,26.6,30.25,South,169,4.0,14.0,40,0.00,,---,0.00,VWS V14.01,2013-03-08 22:20:00,
2013-03-08 17:25:00,46.1,26.5,30.25,WSW,238,0.0,6.0,46,0.00,,---,0.00,VWS V14.01,2013-03-08 22:25:00,
2013-03-08 17:30:00,49.7,27.0,30.25,SSW,192,4.0,10.0,41,0.00,,---,0.00,VWS V14.01,2013-03-08 22:30:00,
2013-03-08 17:35:00,49.7,27.0,30.25,SW,223,0.0,7.0,41,0.00,,---,0.00,VWS V14.01,2013-03-08 22:35:00,
2013-03-08 17:40:00,49.7,27.0,30.25,South,189,2.0,8.0,41,0.00,,---,0.00,VWS V14.01,2013-03-08 22:40:00,
2013-03-08 17:45:00,45.1,26.1,30.26,West,269,2.0,8.0,47,0.00,,---,0.00,VWS V14.01,2013-03-08 22:45:00,
2013-03-08 17:50:00,49.5,26.8,30.25,NW,304,1.0,9.0,41,0.00,,---,0.00,VWS V14.01,2013-03-08 22:50:00,
2013-03-08 17:55:00,49.0,26.3,30.25,South,178,9.0,17.0,41,0.00,,---,0.00,VWS V14.01,2013-03-08 22:55:00,
2013-03-08 18:00:00,48.3,26.3,30.25,SSW,213,6.0,10.0,42,0.00,,---,0.00,VWS V14.01,2013-03-08 23:00:00,
2013-03-08 18:05:00,47.7,26.3,30.25,SSE,150,11.0,11.0,43,0.00,,---,0.00,VWS V14.01,2013-03-08 23:05:00,
2013-03-08 18:10:00,47.2,26.4,30.26,ESE,117,1.0,12.0,44,0.00,,---,0.00,VWS V14.01,2013-03-08 23:10:00,
2013-03-08 18:15:00,44.1,26.7,30.26,West,277,0.0,4.0,50,0.00,,---,0.00,VWS V14.01,2013-03-08 23:15:00,
2013-03-08 18:20:00,46.5,26.3,30.26,WSW,253,1.0,8.0,45,0.00,,---,0.00,VWS V14.01,2013-03-08 23:20:00,
2013-03-08 18:25:00,46.1,26.5,30.25,WSW,238,0.0,6.0,46,0.00,,---,0.00,VWS V14.01,2013-03-08 23:25:00,
2013-03-08 18:30:00,45.9,26.3,30.25,South,180,1.0,6.0,46,0.00,,---,0.00,VWS V14.01,2013-03-08 23:30:00,
2013-03-08 18:35:00,45.6,26.0,30.26,NE,37,3.0,5.0,46,0.00,,---,0.00,VWS V14.01,2013-03-08 23:35:00,
2013-03-08 18:40:00,42.9,26.0,30.26,South,172,2.0,8.0,51,0.00,,---,0.00,VWS V14.01,2013-03-08 23:40:00,
2013-03-08 18:45:00,45.1,26.1,30.26,West,269,2.0,8.0,47,0.00,,---,0.00,VWS V14.01,2013-03-08 23:45:00,
2013-03-08 18:50:00,45.0,26.5,30.25,ESE,117,1.0,13.0,48,0.00,,---,0.00,VWS V14.01,2013-03-08 23:50:00,
2013-03-08 18:55:00,44.8,26.8,30.26,SW,218,5.0,11.0,49,0.00,,---,0.00,VWS V14.01,2013-03-08 23:55:00,
2013-03-08 19:00:00,44.6,26.6,30.26,SW,225,3.0,10.0,49,0.00,,---,0.00,VWS V14.01,2013-03-09 00:00:00,
2013-03-08 19:05:00,44.5,26.5,30.26,SW,229,0.0,3.0,49,0.00,,---,0.00,VWS V14.01,2013-03-09 00:05:00,
2013-03-08 19:10:00,44.3,26.4,30.26,West,279,1.0,6.0,49,0.00,,---,0.00,VWS V14.01,2013-03-09 00:10:00,
2013-03-08 19:15:00,44.1,26.7,30.26,West,277,0.0,4.0,50,0.00,,---,0.00,VWS V14.01,2013-03-09 00:15:00,
2013-03-08 19:20:00,43.8,26.9,30.26,WSW,252,2.0,5.0,51,0.00,,---,0.00,VWS V14.01,2013-03-09 00:20:00,
2013-03-08 19:25:00,42.1,25.8,30.27,WNW,303,2.0,8.0,52,0.00,,---,0.00,VWS V14.01,2013-03-09 00:25:00,
2013-03-08 19:30:00,43.1,26.2,30.26,SW,235,2.0,10.0,51,0.00,,---,0.00,VWS V14.01,2013-03-09 00:30:00,
2013-03-08 19:35:00,43.0,26.1,30.26,South,182,3.0,8.0,51,0.00,,---,0.00,VWS V14.01,2013-03-09 00:35:00,
2013-03-08 19:40:00,42.9,26.0,30.26,South,172,2.0,8.0,51,0.00,,---,0.00,VWS V14.01,2013-03-09 00:40:00,
2013-03-08 19:45:00,42.8,25.9,30.26,SE,140,0.0,6.0,51,0.00,,---,0.00,VWS V14.01,2013-03-09 00:45:00,
2013-03-08 19:50:00,42.7,25.9,30.27,South,177,4.0,6.0,51,0.00,,---,0.00,VWS V14.01,2013-03-09 00:50:00,
2013-03-08 19:55:00,42.7,25.9,30.27,ESE,109,4.0,12.0,51,0.00,,---,0.00,VWS V14.01,2013-03-09 00:55:00,
2013-03-08 20:00:00,42.7,25.9,30.27,SW,229,2.0,4.0,51,0.00,,---,0.00,VWS V14.01,2013-03-09 01:00:00,
2013-03-08 20:05:00,42.7,26.3,30.27,NW,325,4.0,6.0,52,0.00,,---,0.00,VWS V14.01,2013-03-09 01:05:00,
2013-03-08 20:10:00,42.5,26.1,30.27,West,272,4.0,6.0,52,0.00,,---,0.00,VWS V14.01,2013-03-09 01:10:00,
2013-03-08 20:15:00,42.4,26.0,30.27,NW,326,6.0,6.0,52,0.00,,---,0.00,VWS V14.01,2013-03-09 01:15:00,
2013-03-08 20:20:00,42.2,26.3,30.27,NW,319,7.0,7.0,53,0.00,,---,0.00,VWS V14.01,2013-03-09 01:20:00,
2013-03-08 20:25:00,42.1,25.8,30.27,WNW,303,2.0,8.0,52,0.00,,---,0.00,VWS V14.01,2013-03-09 01:25:00,
2013-03-08 20:30:00,42.0,26.6,30.28,North,5,2.0,9.0,54,0.00,,---,0.00,VWS V14.01,2013-03-09 01:30:00,
2013-03-08 20:35:00,41.8,26.8,30.28,North,5,3.0,8.0,55,0.00,,---,0.00,VWS V14.01,2013-03-09 01:35:00,
2013-03-08 20:40:00,41.5,26.1,30.27,ENE,60,4.0,9.0,54,0.00,,---,0.00,VWS V14.01,2013-03-09 01:40:00,
2013-03-08 20:45:00,41.3,25.9,30.29,South,177,5.0,6.0,54,0.00,,---,0.00,VWS V14.01,2013-03-09 01:45:00,
2013-03-08 20:50:00,41.4,26.5,30.28,NW,312,6.0,7.0,55,0.00,,---,0.00,VWS V14.01,2013-03-09 01:50:00,
2013-03-08 20:55:00,41.3,26.4,30.28,NE,53,3.0,8.0,55,0.00,,---,0.00,VWS V14.01,2013-03-09 01:55:00,
2013-03-08 21:00:00,41.6,25.8,30.28,NNW,336,5.0,10.0,53,0.00,,---,0.00,VWS V14.01,2013-03-09 02:00:00,
2013-03-08 21:05:00,41.8,25.5,30.28,NNE,18,4.0,7.0,52,0.00,,---,0.00,VWS V14.01,2013-03-09 02:05:00,
2013-03-08 21:10:00,42.0,26.1,30.27,North,9,3.0,7.0,53,0.00,,---,0.00,VWS V14.01,2013-03-09 02:10:00,
2013-03-08 21:15:00,42.0,25.7,30.27,NNW,343,5.0,11.0,52,0.00,,---,0.00,VWS V14.01,2013-03-09 02:15:00,
2013-03-08 21:20:00,42.2,25.9,30.28,NW,311,2.0,6.0,52,0.00,,---,0.00,VWS V14.01,2013-03-09 02:20:00,
2013-03-08 21:25:00,42.1,24.8,30.28,ENE,64,5.0,7.0,50,0.00,,---,0.00,VWS V14.01,2013-03-09 02:25:00,
2013-03-08 21:30:00,41.6,25.8,30.28,NE,34,6.0,8.0,53,0.00,,---,0.00,VWS V14.01,2013-03-09 02:30:00,
2013-03-08 21:35:00,41.5,25.7,30.28,ENE,59,3.0,6.0,53,0.00,,---,0.00,VWS V14.01,2013-03-09 02:35:00,
2013-03-08 21:40:00,41.4,25.6,30.29,NE,43,3.0,5.0,53,0.00,,---,0.00,VWS V14.01,2013-03-09 02:40:00,
2013-03-08 21:45:00,41.3,25.9,30.29,South,177,5.0,6.0,54,0.00,,---,0.00,VWS V14.01,2013-03-09 02:45:00,
2013-03-08 21:50:00,38.3,26.4,30.32,ESE,108,0.0,4.0,62,0.00,,---,0.00,VWS V14.01,2013-03-09 02:50:00,
2013-03-08 21:55:00,41.1,25.7,30.30,WSW,238,3.0,7.0,54,0.00,,---,0.00,VWS V14.01,2013-03-09 02:55:00,
2013-03-08 22:00:00,41.0,25.6,30.31,NW,316,5.0,6.0,54,0.00,,---,0.00,VWS V14.01,2013-03-09 03:00:00,
2013-03-08 22:05:00,37.2,25.8,30.31,ESE,109,2.0,4.0,63,0.00,,---,0.00,VWS V14.01,2013-03-09 03:05:00,
2013-03-08 22:10:00,41.2,25.8,30.31,NNW,346,1.0,9.0,54,0.00,,---,0.00,VWS V14.01,2013-03-09 03:10:00,
2013-03-08 22:15:00,41.1,26.2,30.32,NNW,340,5.0,5.0,55,0.00,,---,0.00,VWS V14.01,2013-03-09 03:15:00,
2013-03-08 22:20:00,41.0,26.1,30.33,NNW,332,0.0,5.0,55,0.00,,---,0.00,VWS V14.01,2013-03-09 03:20:00,
2013-03-08 22:25:00,40.7,26.2,30.33,NNW,332,1.0,4.0,56,0.00,,---,0.00,VWS V14.01,2013-03-09 03:25:00,
2013-03-08 22:30:00,40.4,27.2,30.33,North,355,1.0,4.0,59,0.00,,---,0.00,VWS V14.01,2013-03-09 03:30:00,
2013-03-08 22:35:00,39.7,26.1,30.33,South,175,2.0,5.0,58,0.00,,---,0.00,VWS V14.01,2013-03-09 03:35:00,
2013-03-08 22:40:00,39.1,26.0,30.33,South,179,4.0,5.0,59,0.00,,---,0.00,VWS V14.01,2013-03-09 03:40:00,
2013-03-08 22:45:00,38.8,26.1,30.32,ESE,108,4.0,5.0,60,0.00,,---,0.00,VWS V14.01,2013-03-09 03:45:00,
2013-03-08 22:50:00,38.3,26.4,30.32,ESE,108,0.0,4.0,62,0.00,,---,0.00,VWS V14.01,2013-03-09 03:50:00,
2013-03-08 22:55:00,37.9,26.1,30.32,ESE,109,0.0,2.0,62,0.00,,---,0.00,VWS V14.01,2013-03-09 03:55:00,
2013-03-08 23:00:00,37.5,25.7,30.32,ESE,109,0.0,4.0,62,0.00,,---,0.00,VWS V14.01,2013-03-09 04:00:00,
2013-03-08 23:05:00,37.2,25.8,30.31,ESE,109,2.0,4.0,63,0.00,,---,0.00,VWS V14.01,2013-03-09 04:05:00,
2013-03-08 23:10:00,36.8,26.1,30.32,ESE,109,0.0,4.0,65,0.00,,---,0.00,VWS V14.01,2013-03-09 04:10:00,
2013-03-08 23:15:00,36.4,26.1,30.31,ESE,109,0.0,4.0,66,0.00,,---,0.00,VWS V14.01,2013-03-09 04:15:00,
2013-03-08 23:20:00,36.0,26.1,30.32,East,88,1.0,5.0,67,0.00,,---,0.00,VWS V14.01,2013-03-09 04:20:00,
2013-03-08 23:25:00,35.9,25.7,30.32,SSE,159,1.0,6.0,66,0.00,,---,0.00,VWS V14.01,2013-03-09 04:25:00,
2013-03-08 23:30:00,35.9,25.7,30.32,SSE,158,4.0,6.0,66,0.00,,---,0.00,VWS V14.01,2013-03-09 04:30:00,
2013-03-08 23:35:00,35.9,26.4,30.32,SE,124,0.0,5.0,68,0.00,,---,0.00,VWS V14.01,2013-03-09 04:35:00,
2013-03-08 23:40:00,35.9,26.0,30.32,ESE,115,2.0,4.0,67,0.00,,---,0.00,VWS V14.01,2013-03-09 04:40:00,
2013-03-08 23:45:00,35.9,26.4,30.32,South,185,3.0,4.0,68,0.00,,---,0.00,VWS V14.01,2013-03-09 04:45:00,
2013-03-08 23:50:00,35.8,26.3,30.32,SSE,151,0.0,4.0,68,0.00,,---,0.00,VWS V14.01,2013-03-09 04:50:00,
2013-03-08 23:55:00,35.7,26.5,30.32,SSE,152,1.0,4.0,69,0.00,,---,0.00,VWS V14.01,2013-03-09 04:55:00,